FW6376 Weather Reports


Display with metric or nautical units.
time (UTC)temp
F
wind
direction
speed
MPH
gust
MPH
rain 1hr
in
rain 24hr
in
rain mn
in
humidity
%
barometer
mb
20260903124504 62 360 0.0 1.0 0.00 0.08 0.08 82 1015.4
20260903123101 61 360 0.0 1.0 0.00 0.08 0.08 82 1015.5
20260903121558 61 15 0.0 0.0 0.00 0.08 0.08 82 1015.7
20260903120111 61 15 0.0 0.0 0.00 0.08 0.08 82 1015.8
20260903114556 61 15 0.0 0.0 0.00 0.08 0.08 82 1015.9
20260903113058 60 15 0.0 0.0 0.00 0.08 0.08 82 1016.0
20260903111552 60 15 0.0 0.0 0.00 0.08 0.08 82 1016.1
20260903110056 60 15 0.0 0.0 0.00 0.08 0.08 82 1016.0
20260903104557 60 15 0.0 0.0 0.00 0.08 0.08 82 1015.8
20260903103050 60 15 0.0 0.0 0.00 0.08 0.08 82 1015.8
20260903101552 60 15 0.0 0.0 0.00 0.08 0.08 82 1015.8
20260903100049 60 15 0.0 0.0 0.00 0.08 0.08 82 1015.5
20260903094558 60 15 0.0 1.0 0.00 0.08 0.08 82 1015.7
20260903093047 60 15 0.0 1.0 0.00 0.08 0.08 81 1015.8
20260903091556 60 15 0.0 0.0 0.00 0.08 0.08 81 1015.7
20260903090044 60 15 0.0 0.0 0.00 0.08 0.08 81 1016.0
20260903084547 60 15 0.0 0.0 0.00 0.08 0.08 81 1016.3
20260903083041 60 15 0.0 0.0 0.00 0.08 0.08 81 1016.2
20260903081541 60 15 0.0 0.0 0.00 0.08 0.08 81 1016.4
20260903080048 60 15 0.0 1.0 0.00 0.08 0.08 81 1016.3
20260903074545 60 15 0.0 2.0 0.00 0.08 0.08 81 1016.5
20260903073037 61 15 0.0 0.0 0.00 0.08 0.08 80 1016.7
20260903071536 61 15 0.0 0.0 0.01 0.08 0.08 80 1016.7
20260903070034 61 15 0.0 0.0 0.07 0.08 0.08 79 1016.9
20260903064533 61 15 0.0 0.0 0.08 0.08 0.08 76 1016.9
20260903063031 61 15 0.0 1.0 0.08 0.08 0.08 74 1016.8
20260903061535 62 15 0.0 1.0 0.06 0.06 0.06 74 1017.2
20260903060037 63 35 0.0 3.0 0.01 0.01 0.01 72 1017.1
20260903054525 63 59 0.0 4.0 0.00 0.00 0.00 70 1017.0
20260903053029 64 55 2.0 9.0 0.00 0.00 0.00 69 1017.5
20260903051518 64 71 1.0 4.0 0.00 0.00 0.00 68 1017.7
20260903050017 64 88 1.0 6.0 0.00 0.00 0.00 68 1018.0
20260903044515 64 30 3.0 9.0 0.00 0.00 0.00 67 1017.7
20260903043028 64 57 1.0 5.0 0.00 0.00 0.00 67 1017.9
20260903041513 64 34 2.0 5.0 0.00 0.00 0.00 67 1017.8
20260903040010 64 297 1.0 7.0 0.00 0.01 0.00 67 1017.8
20260903034507 65 28 2.0 8.0 0.00 0.01 0.00 67 1018.1
20260903033004 65 19 1.0 5.0 0.00 0.01 0.00 67 1018.4
20260903031503 65 46 2.0 6.0 0.00 0.01 0.00 66 1018.7
20260903030002 65 64 1.0 8.0 0.00 0.01 0.00 66 1018.6
20260903024503 65 44 3.0 11.0 0.00 0.01 0.00 67 1018.9
20260903023101 65 26 2.0 4.0 0.00 0.01 0.00 67 1018.9
20260903021600 65 38 3.0 9.0 0.00 0.01 0.00 67 1019.0
20260903021503 65 44 2.0 13.0 0.00 0.01 0.00 67 1019.0
20260903020106 65 51 4.0 8.0 0.00 0.01 0.00 67 1019.2
20260903014604 65 61 0.0 6.0 0.00 0.01 0.00 67 1019.4
20260903013059 65 80 3.0 5.0 0.00 0.01 0.00 67 1019.4
20260903011602 65 30 2.0 6.0 0.00 0.01 0.00 67 1019.4
20260903010058 65 100 1.0 5.0 0.00 0.01 0.00 67 1019.4
20260903004558 65 95 1.0 7.0 0.00 0.01 0.00 68 1019.2
20260903003057 65 310 0.0 8.0 0.00 0.01 0.00 69 1019.1
20260903001602 65 44 2.0 9.0 0.00 0.01 0.00 68 1019.1
20260903000057 66 83 3.0 8.0 0.00 0.01 0.00 68 1018.9
20260902234556 66 129 3.0 10.0 0.00 0.01 0.00 68 1018.9
20260902233054 66 34 2.0 11.0 0.00 0.01 0.00 68 1018.9
20260902231552 65 37 0.0 5.0 0.00 0.01 0.00 69 1019.3
20260902230048 65 61 0.0 6.0 0.00 0.01 0.00 69 1019.8
20260902224546 65 165 0.0 2.0 0.00 0.01 0.00 72 1020.4
20260902223045 66 165 0.0 3.0 0.00 0.01 0.00 71 1020.5
20260902221545 66 22 2.0 9.0 0.00 0.01 0.00 69 1020.7
20260902220047 66 35 0.0 4.0 0.00 0.01 0.00 69 1020.8
20260902214544 67 33 1.0 4.0 0.00 0.01 0.00 67 1020.8
20260902213043 67 314 1.0 4.0 0.00 0.01 0.00 68 1020.6
20260902211551 67 21 0.0 5.0 0.00 0.01 0.00 70 1020.6
20260902210109 67 13 0.0 2.0 0.00 0.01 0.00 70 1020.8
20260902204544 68 11 0.0 3.0 0.00 0.01 0.00 69 1021.0
20260902203041 68 84 2.0 5.0 0.00 0.01 0.00 65 1021.0
20260902201540 68 82 1.0 4.0 0.00 0.01 0.00 64 1021.0
20260902200040 69 49 4.0 10.0 0.00 0.01 0.00 63 1020.9
20260902194539 69 82 2.0 7.0 0.00 0.01 0.00 63 1021.1
20260902193040 70 85 2.0 8.0 0.00 0.01 0.00 62 1021.1
20260902191543 70 30 2.0 8.0 0.00 0.01 0.00 63 1021.3
20260902190039 68 38 3.0 9.0 0.00 0.01 0.00 63 1021.3
20260902184533 68 315 1.0 6.0 0.00 0.01 0.00 66 1021.6
20260902183031 68 58 1.0 5.0 0.00 0.01 0.00 67 1022.0
20260902181531 68 15 2.0 8.0 0.00 0.01 0.00 65 1022.0
20260902180031 68 71 1.0 5.0 0.00 0.01 0.00 65 1022.0
20260902174530 68 52 3.0 10.0 0.00 0.01 0.00 64 1021.6
20260902173030 67 44 1.0 8.0 0.00 0.01 0.00 67 1021.6
20260902171530 67 172 1.0 4.0 0.00 0.01 0.00 64 1021.8
20260902170032 67 42 2.0 6.0 0.00 0.01 0.00 65 1022.0
20260902164530 67 40 1.0 9.0 0.00 0.01 0.00 64 1022.3
20260902163028 68 51 5.0 12.0 0.00 0.01 0.00 64 1022.2
20260902161524 67 59 2.0 6.0 0.00 0.01 0.00 65 1022.0
20260902160023 67 53 0.0 9.0 0.00 0.01 0.00 65 1022.2
20260902154524 67 46 2.0 9.0 0.00 0.01 0.00 63 1022.5
20260902153031 67 61 3.0 5.0 0.00 0.01 0.00 65 1022.7
20260902151520 67 248 2.0 5.0 0.00 0.01 0.00 64 1023.1
20260902150018 67 264 2.0 6.0 0.00 0.01 0.00 64 1023.0
20260902144527 66 252 2.0 8.0 0.00 0.01 0.00 66 1022.9
20260902143014 66 360 1.0 6.0 0.00 0.01 0.00 70 1022.9
20260902141510 65 271 1.0 4.0 0.00 0.01 0.00 72 1022.8
20260902140006 65 161 0.0 3.0 0.00 0.02 0.00 74 1022.7
20260902134506 64 38 0.0 4.0 0.00 0.02 0.00 74 1022.5
20260902133000 63 355 1.0 4.0 0.00 0.02 0.00 76 1022.3
20260902131559 63 355 0.0 3.0 0.00 0.02 0.00 78 1022.1
20260902130104 62 5 1.0 4.0 0.00 0.02 0.00 78 1022.3